[[{"header":{"parameterUnit":"m.s-1","parameterCategory":1,"la1":30.2991,"la2":30.254,"lo1":-89.0895,"lo2":-89.0444,"dy":0.0017,"dx":0.0017,"nx":28,"ny":28,"refTime":"2024-03-18T03:00:00:Z","depth":0,"parameterNumber":2,"parameterNumberName":"U-component_of_WINDS"},"data":[0,0,0,0,0,0,0,0,0,0,0,0,0,0,0,0,0,0,0,0,0,0,0,0,0,0,0,0,0,0,0,0,0,0,0,0,0,0,0,0,0,0,0,0,0,0,0,0,0,0,0,0,0,0,0,0,0,0,1.527,1.5271,0,1.5334,1.5335,1.5335,1.5363,1.5363,1.5363,1.5363,1.5426,1.5428,1.5429,0,0,0,0,0,0,0,0,0,0,0,0,0,1.5171,1.5173,1.527,1.5271,1.5272,1.5334,1.5335,1.5336,1.5363,1.5363,1.5363,1.5363,1.5425,1.5427,1.5429,0,0,0,0,0,0,0,0,0,0,0,0,0,1.5222,1.5173,1.527,1.5293,1.5296,1.5334,1.5335,1.5336,1.5363,1.5363,1.5363,1.5363,1.5425,1.5427,1.543,1.5449,0,0,1.5438,1.5439,0,0,0,0,0,0,0,0,1.5219,1.5226,1.5289,1.5291,1.5294,1.534,1.5323,1.5374,1.5363,1.5337,1.5363,1.5363,1.5397,1.5402,1.5414,1.5452,1.5454,1.5438,1.544,1.5441,1.5442,0,0,0,0,0,0,0,1.5216,1.5223,1.5295,1.529,1.5293,1.53,1.5307,1.5333,1.5367,1.534,1.5342,1.5349,1.5399,1.5412,1.5416,1.5455,1.5438,1.544,1.5442,1.5443,1.5513,1.5514,0,0,0,0,0,0,1.5209,1.522,1.5293,1.5297,1.5256,1.5302,1.531,1.5326,1.5367,1.5373,1.5349,1.535,1.5407,1.5413,1.5418,1.5444,1.5441,1.5443,1.5445,1.5513,1.5514,1.5514,0,0,0,0,0,0,1.5206,1.5215,1.5291,1.5259,1.5269,1.5304,1.5321,1.5327,1.534,1.5374,1.538,1.5356,1.5407,1.5415,1.5442,1.5447,1.5444,1.5447,1.5513,1.5513,1.5514,1.5496,0,0,0,0,0,0,1.5203,1.5214,1.5221,1.5259,1.5271,1.5313,1.5322,1.5328,1.5345,1.5347,1.5382,1.5388,1.5408,1.5438,1.5444,1.5451,1.5449,1.5512,1.5513,1.5514,1.5496,1.5496,1.5495,0,0,0,0,0,1.52,1.5213,1.5222,1.523,1.5281,1.5313,1.532,1.5343,1.5345,1.5353,1.5376,1.5387,1.5446,1.544,1.5448,1.5455,1.5512,1.5513,1.5513,1.5496,1.5496,1.5495,0,0,0,0,0,0,1.5173,1.5218,1.5228,1.5254,1.528,1.5318,1.5328,1.5341,1.5366,1.5366,1.5394,1.5401,1.5426,1.5443,1.5436,1.5477,1.548,1.5482,1.5464,1.5464,1.5463,1.5458,1.5451,0,0,0,0,0,1.5171,1.5193,1.5231,1.525,1.5263,1.5293,1.5308,1.5324,1.5351,1.5362,1.5386,1.5411,1.5436,1.5451,1.5475,1.5499,1.5508,1.5508,1.5508,1.5507,1.5508,1.5524,1.5525,1.5516,1.5516,1.5516,0,0,1.5165,1.5193,1.5205,1.5246,1.5267,1.529,1.5302,1.5325,1.5342,1.5365,1.5392,1.5411,1.5441,1.5467,1.548,1.5482,1.5513,1.5508,1.5507,1.5509,1.5525,1.5525,1.5526,1.5516,1.5516,1.5516,0,0,1.5167,1.519,1.5209,1.5231,1.5264,1.5285,1.5289,1.5326,1.534,1.5368,1.5386,1.5407,1.5447,1.5469,1.5485,1.5497,1.5509,1.5504,1.5502,1.5516,1.5517,1.5518,1.5522,1.5524,1.5506,1.5506,1.5506,0,1.5155,1.519,1.5217,1.5239,1.5257,1.5281,1.53,1.532,1.5359,1.5371,1.5374,1.5427,1.5449,1.5481,1.5484,1.5496,1.5503,1.55,1.5515,1.5516,1.5517,1.5522,1.5523,1.5505,1.5505,1.5505,1.5505,0,1.5175,1.5199,1.5211,1.525,1.5269,1.529,1.5319,1.5335,1.535,1.5371,1.54,1.5428,1.5458,1.5467,1.5481,1.5502,1.5502,1.551,1.5513,1.5517,1.5522,1.5524,1.5504,1.5504,1.5504,1.5505,0,0,1.516,1.5215,1.5218,1.5237,1.5276,1.5295,1.5318,1.5349,1.5363,1.539,1.5409,1.5445,1.5453,1.5471,1.5488,1.5501,1.551,1.5507,1.5508,1.5506,1.5535,1.5529,1.553,1.5519,1.5519,1.5519,1.5532,0,1.5167,1.5209,1.5234,1.5265,1.5289,1.5313,1.5332,1.5359,1.5379,1.5402,1.5424,1.5449,1.5457,1.5468,1.5482,1.5506,1.5516,1.5505,1.5537,1.5538,1.5528,1.5533,1.5526,1.5537,1.5534,1.5535,1.5535,0,1.518,1.5207,1.5241,1.528,1.5291,1.5308,1.534,1.5361,1.5392,1.5406,1.5428,1.5445,1.5471,1.5473,1.5509,1.5501,1.5516,1.553,1.5531,1.5534,1.5536,1.5536,1.5541,1.5543,1.5538,1.5538,1.5538,0,1.5165,1.5211,1.5238,1.5253,1.5298,1.531,1.533,1.5361,1.5378,1.5406,1.5418,1.5448,1.5464,1.5487,1.5513,1.5512,1.5546,1.5551,1.5558,1.5557,1.5563,1.5562,1.557,1.5573,1.5573,1.5573,1.5573,0,1.517,1.519,1.5232,1.5249,1.5272,1.5302,1.5324,1.5345,1.5373,1.5394,1.5417,1.5436,1.5469,1.5492,1.5512,1.5539,1.5546,1.5558,1.5563,1.5556,1.5554,1.5565,1.5565,1.5574,1.5574,1.5574,1.5573,0,1.5157,1.5186,1.5217,1.5259,1.527,1.5285,1.5321,1.5338,1.536,1.5387,1.5394,1.5429,1.5458,1.5487,1.5525,1.5539,1.5565,1.5572,1.5555,1.5558,1.5564,1.5563,1.5578,1.5582,1.5583,1.5583,1.5583,0,1.5158,1.5174,1.5218,1.5234,1.5253,1.5279,1.5298,1.5328,1.5347,1.5384,1.5397,1.5428,1.5454,1.55,1.5528,1.5558,1.5566,1.557,1.557,1.5563,1.5566,1.5565,1.5567,1.5568,1.5568,1.5568,1.5568,0,1.5156,1.517,1.5197,1.5229,1.5251,1.5278,1.5305,1.5317,1.5353,1.5373,1.5403,1.5424,1.5464,1.5495,1.5529,1.5549,1.5564,1.5568,1.5571,1.5563,1.5553,1.5559,1.5553,1.5567,1.5567,1.5567,1.5567,1.5567,1.515,1.5166,1.52,1.5229,1.5253,1.5279,1.5297,1.5323,1.5349,1.5385,1.5401,1.5432,1.5465,1.5512,1.5532,1.5557,1.556,1.5565,1.5566,1.5567,1.5565,1.555,1.5563,1.5563,1.5563,1.5563,1.5563,0,1.5149,1.5173,1.52,1.5238,1.5261,1.5276,1.5307,1.5325,1.5353,1.5382,1.5408,1.5444,1.5474,1.5506,1.5539,1.5552,1.556,1.556,1.5559,1.5563,1.556,1.5554,1.5553,1.5553,1.5553,1.5553,1.5553,1.5553,1.5152,1.518,1.5199,1.5239,1.5263,1.5294,1.5311,1.5335,1.5358,1.5398,1.5423,1.5445,1.5475,1.551,1.5539,1.5548,1.5559,1.5556,1.5567,1.5563,1.5563,1.5564,1.5558,1.5558,1.5558,1.5568,1.5568,1.5568]},{"header":{"parameterUnit":"m.s-1","parameterCategory":1,"la1":30.2991,"la2":30.254,"lo1":-89.0895,"lo2":-89.0444,"dy":0.0017,"dx":0.0017,"nx":28,"ny":28,"refTime":"2024-03-18T03:00:00:Z","depth":0,"parameterNumber":3,"parameterNumberName":"V-component_of_WINDS"},"data":[0,0,0,0,0,0,0,0,0,0,0,0,0,0,0,0,0,0,0,0,0,0,0,0,0,0,0,0,0,0,0,0,0,0,0,0,0,0,0,0,0,0,0,0,0,0,0,0,0,0,0,0,0,0,0,0,0,0,-8.9668,-8.9669,0,-8.9834,-8.9836,-8.9838,-8.972,-8.9715,-8.9709,-8.9704,-8.987,-8.9879,-8.9888,0,0,0,0,0,0,0,0,0,0,0,0,0,-8.9243,-8.9252,-8.9667,-8.9669,-8.9672,-8.9834,-8.9836,-8.9838,-8.9721,-8.9714,-8.9708,-8.9702,-8.9867,-8.9878,-8.9889,0,0,0,0,0,0,0,0,0,0,0,0,0,-8.942,-8.9254,-8.9667,-8.9633,-8.9631,-8.9833,-8.9836,-8.9839,-8.9722,-8.9714,-8.9706,-8.9699,-8.9863,-8.9877,-8.989,-9.0134,0,0,-8.9933,-8.9939,0,0,0,0,0,0,0,0,-8.941,-8.9436,-8.9636,-8.9635,-8.9634,-8.9748,-8.9747,-8.9938,-8.9724,-8.9687,-8.9704,-8.9695,-8.9835,-8.9851,-8.9899,-9.0142,-9.0149,-8.9934,-8.9943,-8.9949,-8.9953,0,0,0,0,0,0,0,-8.9398,-8.9428,-8.9733,-8.9639,-8.9638,-8.9607,-8.9624,-8.9783,-8.9803,-8.969,-8.9682,-8.9703,-8.9833,-8.9886,-8.9902,-9.0151,-8.9934,-8.9946,-8.9955,-8.996,-9.0602,-9.061,0,0,0,0,0,0,-8.939,-8.9419,-8.9728,-8.9738,-8.9501,-8.9621,-8.964,-8.9719,-8.9801,-8.9806,-8.971,-8.9697,-8.9866,-8.9886,-8.9908,-9.0199,-8.9948,-8.9962,-8.997,-9.0593,-9.0604,-9.0613,0,0,0,0,0,0,-8.9381,-8.9418,-8.9721,-8.9576,-8.9613,-8.9637,-8.9727,-8.9727,-8.978,-8.9817,-8.9819,-8.9761,-8.9861,-8.9888,-9.0079,-9.0203,-8.9968,-8.9981,-9.0583,-9.0596,-9.0608,-9.0783,0,0,0,0,0,0,-8.9369,-8.9416,-8.951,-8.9579,-8.9621,-8.9892,-8.9735,-8.9736,-8.9805,-8.979,-8.9865,-8.9869,-8.9857,-9.0059,-9.0093,-9.0218,-8.9991,-9.0572,-9.0589,-9.0604,-9.0767,-9.0801,-9.083,0,0,0,0,0,-8.9355,-8.9551,-8.9515,-8.9553,-8.9739,-8.9899,-8.9922,-8.9905,-8.9815,-8.9909,-8.9933,-8.9867,-9.0184,-9.0079,-9.0117,-9.0248,-9.0564,-9.0584,-9.0603,-9.0753,-9.0794,-9.0829,0,0,0,0,0,0,-8.9494,-8.956,-8.9521,-8.9746,-8.9818,-8.9879,-8.9997,-8.995,-9.0048,-9.003,-9.0002,-9.002,-9.0221,-9.0253,-9.0135,-9.0488,-9.0359,-9.0387,-9.046,-9.05,-9.0531,-9.0519,-9.0003,0,0,0,0,0,-8.9551,-8.9677,-8.9727,-8.9921,-8.9959,-8.9972,-9.0041,-9.0022,-9.0095,-9.0124,-9.0162,-9.0234,-9.0349,-9.0426,-9.0535,-9.077,-9.0785,-9.0879,-9.0911,-9.0936,-9.0961,-9.1089,-9.1131,-9.0677,-9.0677,-9.0677,0,0,-8.967,-8.9721,-8.9802,-8.995,-9.0004,-9.0134,-8.9999,-9.0141,-9.0238,-9.0145,-9.0329,-9.0359,-9.0437,-9.0653,-9.0749,-9.0685,-9.109,-9.0961,-9.0982,-9.0992,-9.1113,-9.1156,-9.1194,-9.0691,-9.0688,-9.0686,0,0,-8.9953,-9.0005,-9.0172,-9.023,-9.0313,-9.0321,-9.0361,-9.043,-9.0447,-9.0631,-9.0565,-9.0678,-9.0878,-9.0937,-9.0993,-9.13,-9.1243,-9.1336,-9.1501,-9.1626,-9.1662,-9.1693,-9.1804,-9.1843,-9.136,-9.136,-9.1361,0,-9.009,-9.0285,-9.0264,-9.0413,-9.048,-9.0405,-9.0574,-9.063,-9.0744,-9.0791,-9.0719,-9.0969,-9.1016,-9.1244,-9.132,-9.1367,-9.1412,-9.1327,-9.1659,-9.169,-9.1719,-9.1824,-9.1865,-9.1371,-9.137,-9.1369,-9.1368,0,-9.0449,-9.0585,-9.071,-9.0826,-9.0906,-9.1064,-9.1067,-9.1151,-9.1125,-9.114,-9.1328,-9.1382,-9.1501,-9.1553,-9.1528,-9.1778,-9.1737,-9.1662,-9.1532,-9.1774,-9.1872,-9.1912,-9.1386,-9.1383,-9.1379,-9.1377,0,0,-9.0824,-9.0927,-9.0974,-9.1025,-9.1113,-9.1217,-9.1371,-9.1489,-9.1562,-9.1643,-9.1772,-9.1943,-9.1876,-9.194,-9.192,-9.203,-9.2271,-9.1942,-9.1943,-9.2002,-9.255,-9.2606,-9.2653,-9.2233,-9.2241,-9.2247,-9.2544,0,-9.1113,-9.1385,-9.1372,-9.1626,-9.1751,-9.1682,-9.1816,-9.1884,-9.1902,-9.201,-9.2028,-9.2151,-9.2052,-9.209,-9.2195,-9.2219,-9.238,-9.2197,-9.2352,-9.2358,-9.2336,-9.2704,-9.2764,-9.3042,-9.2582,-9.2588,-9.2593,0,-9.1486,-9.1583,-9.1851,-9.1921,-9.1973,-9.2094,-9.2202,-9.2306,-9.2381,-9.2386,-9.2459,-9.2422,-9.2577,-9.2443,-9.2656,-9.2532,-9.2594,-9.2616,-9.2626,-9.264,-9.2491,-9.2729,-9.313,-9.3172,-9.2653,-9.2648,-9.2644,0,-9.1735,-9.1932,-9.2118,-9.2164,-9.2249,-9.2337,-9.2376,-9.2443,-9.2515,-9.2609,-9.2655,-9.2764,-9.2825,-9.2909,-9.2902,-9.2806,-9.3119,-9.2984,-9.3127,-9.3128,-9.3197,-9.3193,-9.3615,-9.3236,-9.3236,-9.3235,-9.3234,0,-9.206,-9.2226,-9.2231,-9.2345,-9.253,-9.2512,-9.2694,-9.2724,-9.2784,-9.2902,-9.2847,-9.2959,-9.2943,-9.3055,-9.305,-9.3227,-9.3254,-9.3262,-9.3259,-9.3268,-9.3268,-9.3309,-9.329,-9.3246,-9.3243,-9.3241,-9.3239,0,-9.2369,-9.2379,-9.2577,-9.2642,-9.2663,-9.2796,-9.2851,-9.2959,-9.2972,-9.3122,-9.3156,-9.3177,-9.3306,-9.3308,-9.3454,-9.3451,-9.3668,-9.3643,-9.3644,-9.3639,-9.3783,-9.377,-9.4246,-9.4308,-9.3889,-9.3893,-9.3896,0,-9.2576,-9.2703,-9.2783,-9.2859,-9.2905,-9.3028,-9.3102,-9.3088,-9.3167,-9.3263,-9.3359,-9.3483,-9.3582,-9.379,-9.3817,-9.3929,-9.3906,-9.4066,-9.3923,-9.3928,-9.391,-9.3903,-9.3916,-9.4094,-9.4098,-9.4102,-9.4105,0,-9.2943,-9.2942,-9.3051,-9.3164,-9.3255,-9.3342,-9.3422,-9.3487,-9.3483,-9.3574,-9.3707,-9.3783,-9.3934,-9.4058,-9.4166,-9.4204,-9.4155,-9.415,-9.4189,-9.42,-9.4196,-9.4201,-9.3722,-9.4139,-9.4136,-9.4134,-9.4132,-9.413,-9.3208,-9.3318,-9.3392,-9.3516,-9.3576,-9.3653,-9.3758,-9.3786,-9.3896,-9.402,-9.4004,-9.4152,-9.4223,-9.4364,-9.4412,-9.4525,-9.447,-9.4526,-9.4541,-9.4555,-9.4572,-9.4178,-9.4545,-9.4544,-9.4543,-9.4542,-9.4541,0,-9.3572,-9.3617,-9.3732,-9.3848,-9.3946,-9.3892,-9.3979,-9.4064,-9.4195,-9.4266,-9.4365,-9.4517,-9.4637,-9.4674,-9.479,-9.4874,-9.4854,-9.4905,-9.4899,-9.4909,-9.4614,-9.4569,-9.4919,-9.4919,-9.4919,-9.4919,-9.4919,-9.4919,-9.3774,-9.3958,-9.3966,-9.4179,-9.4221,-9.4367,-9.4421,-9.4492,-9.4549,-9.4722,-9.4822,-9.4846,-9.4904,-9.5024,-9.5131,-9.5138,-9.5184,-9.5244,-9.5243,-9.4967,-9.4929,-9.4893,-9.4851,-9.5254,-9.5255,-9.5528,-9.553,-9.5532]}]]